OBJECT L, 61904

Orbit data source: Space-Track

You're viewing an Uncataloged Satellite

Recently launched and/or uncataloged satellites may have evolving metadata. Metadata may include but not limited to: Owner, Maufacturer, Bus, Motor, and Mission.

OBJECT L, 61904 is a satellite owned by Yunyao yuhang (CN) in SSO that was launched on Mon, 11 Nov 2024 UTC via a LIJIAN-1 launch vehicle from the Jiuquan Satellite Launch Center, China (JSC). Unknown objects in Earth's orbit typically refer to objects detected orbiting the Earth but have not yet been identified or cataloged. These objects could be anything from previously untracked satellites, spent rocket stages, debris from satellite collisions, or even natural meteoroids temporarily captured by Earth's gravity.

Loading next visibility...
Identifier
61904, 2024-205L
Orbit
SSO
Last TLE update
5 hours ago
Origin
Flag of CNYYAO (CN / PRC)
Manufacturer
Changguang WJ
Mission
Operational Commercial Weather
Bus & Motor
YY-1, Unknown motor
Mass
~50 kg wet, ~50 kg dry
Launch date (UTC)
2024-11-11 (8 months ago)
Launch vehicle
LIJIAN-1
Launch site
Jiuquan Satellite Launch Center, China (JSC)
Object type
Unknown
Shape & HBR
Box + 1 Pan, 5 m
Radar Cross Section
5.339 m², Medium (>0.1 m² and < 1m²)

Expand to show TLE details & history

TLE from 5 hours ago
0 OBJECT L
1 61904U 24205L   25182.15623240  .00007938  00000-0  42559-3 0  9999
2 61904  97.4509 255.6450 0034311 173.7937 186.3727 15.14730680 35065
Epoch: 2025-07-01T03:44Z
TLE epoch observation values (Epoch: 2025-07-01T03:44:58.479Z)
Latitude
-0.00005°
Longitude
-80.05439°
Altitude
548.413 km
Speed
7.575 km/s
True Right ascension
17h 02m 34s
True Declination
0° 00' 00"
Sunlit
Object was in full shadow at epoch
Visualization orbit readout
Latitude
57.02099°
Longitude
-91.41264°
Altitude
541.473 km
Speed
7.592 km/s
Apparent Right ascension
11h 31m 29s
Apparent Declination
20° 36' 26"
Sunlit
Object is in daylight
Visualization observer readout
Local Sidereal Time
20:23:49
Azimuth
314.855° NW
Elevation
-15.339°
Doppler factor
1
Orbital elements
Apogee altitude
542.435 km
Perigee altitude
495.107 km
Semi-major axis
6,896.908 km
Eccentricity
0.00343
Inclination
97.4509°
RAAN
255.645°
Arg. of periapsis
173.7937°
True anomaly
Unknown
Mean anomaly
186.3727°
Eccentric anomaly
Unknown
Mean motion
3.78932 °/min
Orbital period
95 mins
BSTAR
0.00042559
Loading maneuver chart data...
Loading SW <> Apogee altitude chart data...
Loading historical data...
Loading historical data...
Loading historical data...
Loading historical data...
Loading historical data...
Loading historical data...
Loading historical data...

OBJECT L Visibility forecast

Observer location: undefined°, undefined°

Span
Click to sort rows by Start time (UTC) header in descending order
Start Az.
Max El. time (UTC)
Max El. Az.
Max El.
End time (UTC)
End Az.
5 mins2025-07-01 17:00:38.692Z46.114° ENE2025-07-01 17:03:38.692Z104.262° ESE19.678°2025-07-01 17:05:38.692Z141.182° SSE
4 mins2025-07-01 18:35:38.692Z327.276° NNW2025-07-01 18:37:38.692Z283.168° WNW20.295°2025-07-01 18:39:38.692Z245.08° WSW
5 mins2025-07-02 05:15:38.692Z194.698° SSW2025-07-02 05:17:38.692Z268.71° W38.456°2025-07-02 05:20:38.692Z335.406° NNW
|